Regional Weather Roundup
Issued by NWS

Home | Current Version | Previous Version | Text Only | Print | Product List | Glossary On
Versions: 1 2 3 4 5 6 7 8 9 10 11 12 13 14 15 16 17 18 19 20 21 22 23 24 25 26 27 28 29 30 31 32 33 34 35 36 37 38 39 40 41 42 43 44 45 46 47 48 49 50
000
ASUS44 KJAN 210510
RWRMS

MISSISSIPPI HOURLY WEATHER ROUNDUP
NATIONAL WEATHER SERVICE JACKSON MS
1200 AM CDT TUE OCT 21 2014

NOTE: "FAIR: INDICATES FEW OR NO CLOUDS BELOW 12,000 FEET WITH NO
SIGNIFICANT WEATHER AND/OR OBSTRUCTIONS TO VISIBILITY.

MSZ001>002-007>008-010>013-018>021-025>028-034>036-210600-
NORTHWEST MISSISSIPPI

CITY           SKY/WX    TMP DP  RH WIND       PRES   REMARKS
CLARKSDALE     FAIR      55  55 100 CALM      30.05S
CLEVELAND      FAIR      57  56  96 CALM      30.04F
GREENWOOD      CLEAR     53  51  93 CALM      30.04F
GREENVILLE     CLEAR     57  53  86 CALM      30.04F
GRENADA          N/A    N/A N/A N/A MISG        N/A
OLIVE BRANCH   CLEAR     54  54 100 CALM      30.04S
OXFORD         FAIR      50  48  93 CALM      30.06S
TUNICA         CLEAR     54  52  94 CALM      30.04F
$$

MSZ003>006-009-014>017-022>024-029>033-037>039-210600-
NORTHEAST MISSISSIPPI

CITY           SKY/WX    TMP DP  RH WIND       PRES   REMARKS
COLUMBUS AFB   CLEAR     51  51  99 CALM      30.04F
CORINTH        FAIR      50  48  93 CALM      30.03F FOG
GOLDN TRIANGLE CLEAR     52  46  82 CALM      30.04S
STARKVILLE     FAIR      50  50 100 CALM      30.04F
TUPELO         CLEAR     54  51  90 CALM      30.04S
$$

MSZ040-058-210600-
CENTRAL MISSISSIPPI

CITY           SKY/WX    TMP DP  RH WIND       PRES   REMARKS
JACKSON INTL   CLEAR     54  51  90 CALM      30.05S
JACKSON HAWKNS CLEAR     56  51  84 CALM      30.05S
MERIDIAN KEY   CLEAR     51  49  92 CALM      30.04F
MERIDIAN NAS   CLEAR     53  50  89 CALM      30.04F
RAYMOND        FAIR      50  46  87 MISG      30.05S FOG
VICKSBURG      CLEAR     52  50  93 CALM      30.05S
$$

MSZ059>079-210600-
SOUTH MISSISSIPPI

CITY           SKY/WX    TMP DP  RH WIND       PRES   REMARKS
BROOKHAVEN     FAIR      54  52  94 CALM      30.06F
COLUMBIA         N/A    N/A N/A N/A MISG        N/A
HATTIESBURG    CLEAR     54  52  93 CALM      30.04F
MCCOMB         CLEAR     59  51  75 N5        30.04F
NATCHEZ        CLEAR     55  52  88 CALM      30.05S
PINE BELT      CLEAR     54  48  82 CALM      30.04F
$$

MSZ080>082-210600-
COASTAL MISSISSIPPI

CITY           SKY/WX    TMP DP  RH WIND       PRES   REMARKS
BILOXI         CLEAR     62  53  71 NE5       30.01S
PASCAGOULA     CLEAR     49  48  97 CALM      30.02S
GULFPORT       CLEAR     56  53  90 CALM      30.01F
$$


USA.gov is the U.S. government's official web portal to all federal, state and local government web resources and services.